Location: Musselshell
(46.5176°N, 108.0911°W)
Time: 08:29:45
(UTC+00:00)

Gurwin Techsat 1B - Visible Passes

Search period start: 25 June 2022 00:00
Search period end: 05 July 2022 00:00
Orbit: 811 x 814 km, 98.8° (Epoch: 24 June)

Date Brightness Start Highest point End Pass type
(mag) Time Alt. Az. Time Alt. Az. Time Alt. Az.
25 Jun 9.4 09:25:13 10° NNE 09:30:23 48° E 09:35:22 11° S visible
26 Jun 10.0 09:02:35 10° NNE 09:07:17 31° E 09:11:58 10° SSE visible
26 Jun 9.3 10:42:21 10° N 10:47:17 40° WNW 10:52:12 10° SW visible
27 Jun 10.6 08:40:15 10° NE 08:44:08 20° E 08:47:58 10° SE visible
27 Jun 8.8 10:19:13 10° N 10:24:27 61° WNW 10:29:41 10° SSW visible
28 Jun 11.0 08:18:39 10° ENE 08:20:52 13° E 08:23:05 10° ESE visible
28 Jun 8.7 09:56:12 10° NNE 10:01:33 87° ESE 10:06:49 10° SSW visible
29 Jun 9.1 09:33:20 10° NNE 09:38:35 56° E 09:43:34 11° S visible
30 Jun 9.8 09:10:38 10° NNE 09:15:31 36° E 09:20:19 10° SSE visible
01 Jul 10.4 08:48:10 10° NE 08:52:23 23° E 08:56:35 10° SE visible
01 Jul 9.0 10:27:26 10° N 10:32:36 53° WNW 10:37:44 10° SW visible
02 Jul 10.9 08:26:12 10° NE 08:29:09 15° E 08:32:06 10° ESE visible
02 Jul 8.6 10:04:22 10° NNE 10:09:43 81° WNW 10:15:00 10° SSW visible
03 Jul 8.9 09:41:27 10° NNE 09:46:46 66° ESE 09:51:45 12° S visible
04 Jul 9.6 09:18:41 10° NNE 09:23:44 42° E 09:28:30 11° SSE visible
